Location: Cabeza de los Veneras
(40.2000°N, 5.2000°W)
Time: 04:15:51
(UTC+00:00)

ACS3 Solar Sail - Visible Passes

Search period start: 24 June 2024 00:00
Search period end: 04 July 2024 00:00
Orbit: 992 x 1024 km, 97.4° (Epoch: 23 June)

Date Brightness Start Highest point End Pass type
(mag) Time Alt. Az. Time Alt. Az. Time Alt. Az.
24 Jun 6.0 20:40:10 10° ESE 20:45:11 27° ENE 20:50:13 10° NNE visible
24 Jun 5.5 22:25:14 23° SSW 22:28:58 49° W 22:34:59 10° NNW visible
25 Jun 5.2 21:14:42 17° SE 21:19:19 49° ENE 21:25:16 10° N visible
25 Jun 6.4 23:00:02 15° SW 23:03:39 25° W 23:08:41 10° NW visible
26 Jun 4.8 21:49:30 23° SSE 21:53:37 89° WSW 21:59:53 10° NNW visible
26 Jun 7.1 23:36:09 10° WSW 23:38:31 12° W 23:40:54 10° WNW visible
27 Jun 6.0 20:39:14 10° ESE 20:44:19 27° ENE 20:49:24 10° N visible
27 Jun 5.5 22:24:18 22° SSW 22:28:07 47° W 22:34:06 10° NNW visible
28 Jun 5.2 21:13:45 17° SE 21:18:27 51° ENE 21:24:25 10° N visible
28 Jun 6.5 22:59:05 15° SW 23:02:48 24° W 23:07:46 10° NW visible
29 Jun 4.8 21:48:33 22° SSE 21:52:46 87° W 21:59:00 10° NNW visible
29 Jun 7.1 23:35:37 10° WSW 23:37:42 12° W 23:39:47 10° WNW visible
30 Jun 6.0 20:38:18 10° ESE 20:43:26 28° ENE 20:48:34 10° N visible
30 Jun 5.6 22:23:21 21° SSW 22:27:16 46° W 22:33:13 10° NNW visible
01 Jul 5.1 21:12:49 16° SE 21:17:34 52° ENE 21:23:34 10° N visible
01 Jul 6.5 22:58:10 14° SW 23:01:58 24° W 23:06:50 10° NW visible
02 Jul 4.8 21:47:37 22° S 21:51:54 84° W 21:58:09 10° NNW visible
02 Jul 7.2 23:35:07 10° WSW 23:36:52 11° W 23:38:37 10° WNW visible
03 Jul 5.9 20:37:22 10° ESE 20:42:34 29° ENE 20:47:46 10° N visible
03 Jul 5.6 22:22:26 20° SSW 22:26:25 44° W 22:32:20 10° NNW visible
